| time (UTC) | temp F | wind direction | speed knots | gust knots | rain 1hr in | rain 24hr in | rain mn in | humidity % | barometer mb |
| 20260502152033 | 52 | 247 | 7.8 | 8.7 | 0.00 | 0.00 | 0.00 | 53 | 1016.8 |
| 20260502151530 | 51 | 264 | 0.9 | 1.7 | 0.00 | 0.00 | 0.00 | 56 | 1016.9 |
| 20260502151027 | 50 | 257 | 4.3 | 9.6 | 0.00 | 0.00 | 0.00 | 59 | 1016.9 |
| 20260502150525 | 50 | 234 | 0.0 | 0.9 | 0.00 | 0.00 | 0.00 | 59 | 1016.8 |
| 20260502130410 | 44 | 356 | 2.6 | 4.3 | 0.00 | 0.00 | 0.00 | 80 | 1017.5 |
| 20260502123347 | 41 | 348 | 1.7 | 2.6 | 0.00 | 0.00 | 0.00 | 99 | 1017.2 |
| 20260502122844 | 40 | 242 | 0.0 | 0.9 | 0.00 | 0.00 | 0.00 | 99 | 1017.2 |
| 20260502122339 | 41 | 255 | 0.0 | 0.0 | 0.00 | 0.00 | 0.00 | 99 | 1017.0 |
| 20260502121838 | 40 | 231 | 0.0 | 0.0 | 0.00 | 0.00 | 0.00 | 99 | 1016.7 |
| 20260502121335 | 41 | 236 | 0.0 | 0.0 | 0.00 | 0.00 | 0.00 | 99 | 1017.0 |
| 20260502120832 | 39 | 235 | 0.0 | 0.0 | 0.00 | 0.00 | 0.00 | 99 | 1017.1 |
| 20260502120328 | 39 | 244 | 0.0 | 0.0 | 0.00 | 0.00 | 0.00 | 99 | 1016.8 |
| 20260502115827 | 39 | 234 | 0.0 | 0.0 | 0.00 | 0.00 | 0.00 | 99 | 1016.9 |
| 20260502115323 | 39 | 241 | 0.0 | 0.0 | 0.00 | 0.00 | 0.00 | 99 | 1017.0 |
| 20260502114819 | 39 | 237 | 0.0 | 0.0 | 0.00 | 0.00 | 0.00 | 99 | 1016.9 |
| 20260502114316 | 39 | 217 | 0.0 | 0.0 | 0.00 | 0.00 | 0.00 | 99 | 1017.0 |
| 20260502113813 | 39 | 240 | 0.0 | 0.0 | 0.00 | 0.00 | 0.00 | 99 | 1016.9 |
| 20260502113311 | 39 | 233 | 0.0 | 0.0 | 0.00 | 0.00 | 0.00 | 99 | 1017.0 |
| 20260502112809 | 38 | 236 | 0.0 | 0.0 | 0.00 | 0.00 | 0.00 | 99 | 1016.9 |
| 20260502112306 | 38 | 233 | 0.0 | 0.0 | 0.00 | 0.00 | 0.00 | 99 | 1016.8 |
| 20260502111803 | 38 | 243 | 0.0 | 0.0 | 0.00 | 0.00 | 0.00 | 99 | 1016.9 |
| 20260502111301 | 38 | 258 | 0.9 | 0.9 | 0.00 | 0.00 | 0.00 | 99 | 1016.9 |
| 20260502110758 | 38 | 238 | 0.0 | 0.0 | 0.00 | 0.00 | 0.00 | 99 | 1016.7 |
| 20260502110256 | 38 | 238 | 0.0 | 0.0 | 0.00 | 0.00 | 0.00 | 99 | 1016.8 |
| 20260502105754 | 38 | 239 | 0.0 | 0.0 | 0.00 | 0.00 | 0.00 | 99 | 1016.8 |
| 20260502105249 | 38 | 237 | 0.0 | 0.0 | 0.00 | 0.00 | 0.00 | 99 | 1017.0 |
| 20260502104748 | 38 | 253 | 0.0 | 0.0 | 0.00 | 0.00 | 0.00 | 99 | 1017.0 |
| 20260502104245 | 39 | 250 | 0.0 | 0.0 | 0.00 | 0.00 | 0.00 | 99 | 1017.0 |
| 20260502103742 | 39 | 235 | 0.0 | 0.0 | 0.00 | 0.00 | 0.00 | 99 | 1017.0 |
| 20260502103240 | 39 | 245 | 0.0 | 0.0 | 0.00 | 0.00 | 0.00 | 99 | 1016.7 |
| 20260502102736 | 39 | 245 | 0.0 | 0.0 | 0.00 | 0.00 | 0.00 | 99 | 1016.9 |
| 20260502102233 | 39 | 245 | 0.0 | 0.0 | 0.00 | 0.00 | 0.00 | 99 | 1017.1 |
| 20260502101731 | 39 | 245 | 0.0 | 0.0 | 0.00 | 0.00 | 0.00 | 99 | 1017.0 |
| 20260502101229 | 39 | 248 | 0.0 | 0.0 | 0.00 | 0.00 | 0.00 | 99 | 1016.9 |
| 20260502100727 | 39 | 245 | 0.0 | 0.0 | 0.00 | 0.00 | 0.00 | 99 | 1016.8 |
| 20260502100225 | 39 | 246 | 0.0 | 0.0 | 0.00 | 0.00 | 0.00 | 99 | 1016.8 |
| 20260502091159 | 36 | 253 | 0.0 | 0.0 | 0.00 | 0.00 | 0.00 | 99 | 1017.0 |
| 20260502090656 | 35 | 258 | 0.0 | 0.0 | 0.00 | 0.00 | 0.00 | 99 | 1017.2 |
| 20260502090153 | 35 | 250 | 0.0 | 0.0 | 0.00 | 0.00 | 0.00 | 99 | 1017.2 |
| 20260502071050 | 39 | 257 | 0.0 | 0.0 | 0.00 | 0.00 | 0.00 | 99 | 1016.5 |
| 20260502070548 | 39 | 266 | 0.0 | 0.0 | 0.00 | 0.00 | 0.00 | 99 | 1016.5 |
| 20260502070045 | 39 | 254 | 0.0 | 0.0 | 0.00 | 0.00 | 0.00 | 99 | 1016.5 |
| 20260502065544 | 39 | 257 | 0.0 | 0.0 | 0.00 | 0.00 | 0.00 | 99 | 1016.7 |
| 20260502065041 | 39 | 259 | 0.0 | 0.0 | 0.00 | 0.00 | 0.00 | 99 | 1016.6 |
| 20260502064539 | 40 | 265 | 0.0 | 0.0 | 0.00 | 0.00 | 0.00 | 99 | 1016.6 |
| 20260502064036 | 40 | 248 | 0.0 | 0.0 | 0.00 | 0.00 | 0.00 | 99 | 1016.7 |
| 20260502063534 | 40 | 248 | 0.0 | 0.0 | 0.00 | 0.00 | 0.00 | 99 | 1017.0 |
| 20260502063031 | 40 | 253 | 0.0 | 0.0 | 0.00 | 0.00 | 0.00 | 99 | 1016.9 |
| 20260502062528 | 39 | 252 | 0.0 | 0.0 | 0.00 | 0.00 | 0.00 | 99 | 1017.2 |
| 20260502062027 | 39 | 247 | 0.0 | 0.0 | 0.00 | 0.00 | 0.00 | 99 | 1017.3 |
| 20260502061524 | 39 | 248 | 0.0 | 0.0 | 0.00 | 0.00 | 0.00 | 99 | 1017.1 |
| 20260502061021 | 40 | 253 | 0.0 | 0.0 | 0.00 | 0.00 | 0.00 | 99 | 1017.0 |
| 20260502060516 | 39 | 252 | 0.0 | 0.0 | 0.00 | 0.00 | 0.00 | 99 | 1017.1 |
| 20260502060013 | 39 | 242 | 0.0 | 0.0 | 0.00 | 0.00 | 0.00 | 99 | 1017.1 |
| 20260502055510 | 39 | 251 | 0.0 | 0.0 | 0.00 | 0.00 | 0.00 | 99 | 1017.2 |
| 20260502055009 | 39 | 251 | 0.0 | 0.0 | 0.00 | 0.00 | 0.00 | 99 | 1017.1 |
| 20260502054508 | 39 | 259 | 0.0 | 0.0 | 0.00 | 0.00 | 0.00 | 99 | 1017.2 |
| 20260502054004 | 39 | 260 | 0.0 | 0.0 | 0.00 | 0.00 | 0.00 | 99 | 1017.1 |
| 20260502053501 | 39 | 260 | 0.0 | 0.0 | 0.00 | 0.00 | 0.00 | 99 | 1017.3 |
| 20260502052959 | 39 | 260 | 0.0 | 0.0 | 0.00 | 0.00 | 0.00 | 99 | 1017.3 |
| 20260502052457 | 38 | 247 | 0.0 | 0.0 | 0.00 | 0.00 | 0.00 | 99 | 1017.3 |
| 20260502051955 | 38 | 241 | 0.0 | 0.0 | 0.00 | 0.00 | 0.00 | 99 | 1017.3 |
| 20260502051453 | 38 | 241 | 0.0 | 0.0 | 0.00 | 0.00 | 0.00 | 99 | 1017.2 |
| 20260502050950 | 38 | 240 | 0.0 | 0.0 | 0.00 | 0.00 | 0.00 | 99 | 1017.5 |
| 20260502050446 | 38 | 253 | 0.0 | 0.0 | 0.00 | 0.00 | 0.00 | 99 | 1017.3 |
| 20260502045944 | 38 | 259 | 0.0 | 0.0 | 0.00 | 0.00 | 0.00 | 99 | 1017.3 |
| 20260502045440 | 37 | 265 | 0.0 | 0.0 | 0.00 | 0.00 | 0.00 | 99 | 1017.4 |
| 20260502044937 | 37 | 276 | 0.0 | 0.0 | 0.00 | 0.00 | 0.00 | 99 | 1017.3 |
| 20260502044433 | 37 | 281 | 0.0 | 0.0 | 0.00 | 0.00 | 0.00 | 99 | 1017.4 |
| 20260502043930 | 0 | 0.0 | 0.0 | 0.00 | 0.00 | 0.00 | 1017.2 | ||
| 20260502043428 | 0 | 0.0 | 0.0 | 0.00 | 0.00 | 0.00 | 1017.5 | ||
| 20260502042927 | 37 | 300 | 0.0 | 0.0 | 0.00 | 0.00 | 0.00 | 99 | 1017.3 |
| 20260502042424 | 37 | 300 | 0.0 | 0.0 | 0.00 | 0.00 | 0.00 | 99 | 1017.3 |
| 20260502041921 | 37 | 266 | 0.0 | 0.0 | 0.00 | 0.00 | 0.00 | 99 | 1017.4 |
| 20260502041420 | 38 | 270 | 0.0 | 0.0 | 0.00 | 0.00 | 0.00 | 99 | 1017.2 |
| 20260502040916 | 38 | 286 | 0.0 | 0.0 | 0.00 | 0.00 | 0.00 | 99 | 1017.3 |
| 20260502040413 | 38 | 270 | 0.0 | 0.0 | 0.00 | 0.00 | 0.00 | 99 | 1017.4 |
| 20260502035909 | 38 | 277 | 0.0 | 0.0 | 0.00 | 0.01 | 0.01 | 99 | 1017.3 |
| 20260502035406 | 38 | 272 | 0.0 | 0.0 | 0.00 | 0.01 | 0.01 | 99 | 1017.4 |
| 20260502034903 | 38 | 289 | 0.0 | 0.0 | 0.00 | 0.01 | 0.01 | 99 | 1017.2 |
| 20260502034402 | 38 | 267 | 0.0 | 0.0 | 0.00 | 0.01 | 0.01 | 99 | 1017.2 |
| 20260502033900 | 0 | 0.0 | 0.0 | 0.00 | 0.00 | 0.00 | 1017.3 | ||
| 20260502033357 | 0 | 0.0 | 0.0 | 0.00 | 0.00 | 0.00 | 1017.3 | ||
| 20260502032853 | 39 | 263 | 0.0 | 0.0 | 0.00 | 0.01 | 0.01 | 98 | 1017.1 |
| 20260502032349 | 39 | 263 | 0.0 | 0.0 | 0.00 | 0.01 | 0.01 | 98 | 1017.4 |
| 20260502031847 | 39 | 263 | 0.0 | 0.0 | 0.00 | 0.01 | 0.01 | 98 | 1017.6 |
| 20260502031345 | 39 | 264 | 0.0 | 0.0 | 0.00 | 0.01 | 0.01 | 98 | 1017.5 |
| 20260502030843 | 39 | 282 | 0.0 | 0.0 | 0.00 | 0.01 | 0.01 | 98 | 1017.4 |
| 20260502030341 | 39 | 254 | 0.0 | 0.0 | 0.00 | 0.01 | 0.01 | 98 | 1017.2 |
| 20260502025838 | 39 | 270 | 0.0 | 0.0 | 0.00 | 0.01 | 0.01 | 98 | 1017.3 |
| 20260502025336 | 39 | 272 | 0.0 | 0.0 | 0.00 | 0.01 | 0.01 | 98 | 1017.3 |
| 20260502024834 | 39 | 281 | 0.0 | 0.0 | 0.00 | 0.01 | 0.01 | 97 | 1017.2 |
| 20260502024331 | 39 | 256 | 0.0 | 0.0 | 0.00 | 0.01 | 0.01 | 97 | 1016.9 |
| 20260502023829 | 40 | 284 | 0.0 | 0.0 | 0.00 | 0.01 | 0.01 | 97 | 1017.0 |
| 20260502023327 | 40 | 295 | 0.0 | 0.0 | 0.00 | 0.01 | 0.01 | 96 | 1016.9 |
| 20260502022824 | 40 | 264 | 0.0 | 0.0 | 0.00 | 0.01 | 0.01 | 96 | 1017.0 |
| 20260502022320 | 41 | 287 | 0.0 | 0.0 | 0.00 | 0.01 | 0.01 | 96 | 1017.0 |
| 20260502021817 | 41 | 266 | 0.0 | 0.0 | 0.00 | 0.01 | 0.01 | 95 | 1016.6 |
| 20260502021315 | 41 | 251 | 0.0 | 0.0 | 0.00 | 0.01 | 0.01 | 95 | 1016.6 |
| 20260502020812 | 41 | 261 | 0.0 | 0.0 | 0.00 | 0.01 | 0.01 | 95 | 1016.6 |
| 20260502020309 | 41 | 284 | 0.0 | 0.0 | 0.00 | 0.01 | 0.01 | 94 | 1016.7 |
| 20260502015806 | 41 | 257 | 0.0 | 0.0 | 0.00 | 0.01 | 0.01 | 94 | 1016.8 |
| 20260502015305 | 42 | 3 | 0.0 | 0.0 | 0.00 | 0.01 | 0.01 | 93 | 1016.7 |
| 20260502014800 | 42 | 24 | 0.0 | 0.0 | 0.00 | 0.01 | 0.01 | 93 | 1016.3 |
| 20260502014257 | 42 | 245 | 0.0 | 0.0 | 0.00 | 0.01 | 0.01 | 91 | 1016.3 |
| 20260502013753 | 42 | 245 | 0.0 | 0.0 | 0.00 | 0.01 | 0.01 | 91 | 1016.4 |
| 20260502013249 | 42 | 249 | 0.0 | 0.0 | 0.00 | 0.01 | 0.01 | 90 | 1016.5 |
| 20260502012746 | 43 | 4 | 0.9 | 0.9 | 0.00 | 0.01 | 0.01 | 89 | 1016.3 |
| 20260502012244 | 44 | 310 | 0.9 | 0.9 | 0.00 | 0.01 | 0.01 | 88 | 1016.2 |
| 20260502011741 | 44 | 274 | 0.0 | 0.9 | 0.00 | 0.01 | 0.01 | 87 | 1016.0 |
| 20260502011236 | 44 | 243 | 0.0 | 0.0 | 0.00 | 0.01 | 0.01 | 85 | 1016.1 |
| 20260502010734 | 45 | 245 | 0.0 | 0.0 | 0.00 | 0.01 | 0.01 | 84 | 1015.9 |
| 20260502010230 | 45 | 254 | 0.0 | 0.0 | 0.00 | 0.01 | 0.01 | 83 | 1015.6 |
| 20260502005728 | 46 | 253 | 0.0 | 0.0 | 0.00 | 0.01 | 0.01 | 81 | 1015.6 |
| 20260502005226 | 46 | 249 | 0.0 | 0.0 | 0.00 | 0.01 | 0.01 | 80 | 1015.5 |
| 20260502004722 | 47 | 230 | 0.0 | 0.9 | 0.00 | 0.01 | 0.01 | 80 | 1015.6 |
| 20260502004218 | 47 | 322 | 0.0 | 0.9 | 0.00 | 0.01 | 0.01 | 79 | 1015.4 |
| 20260502003716 | 47 | 11 | 2.6 | 2.6 | 0.00 | 0.01 | 0.01 | 78 | 1015.3 |
| 20260502003213 | 48 | 286 | 0.9 | 0.9 | 0.00 | 0.01 | 0.01 | 77 | 1015.4 |
| 20260502002709 | 48 | 309 | 2.6 | 2.6 | 0.00 | 0.01 | 0.01 | 77 | 1015.0 |
| 20260502002207 | 48 | 263 | 0.9 | 0.9 | 0.00 | 0.01 | 0.01 | 77 | 1014.9 |
| 20260502001704 | 49 | 13 | 2.6 | 2.6 | 0.00 | 0.01 | 0.01 | 76 | 1015.0 |
| 20260502001202 | 49 | 252 | 0.0 | 0.9 | 0.00 | 0.01 | 0.01 | 75 | 1015.0 |
| 20260502000659 | 49 | 267 | 2.6 | 2.6 | 0.00 | 0.01 | 0.01 | 73 | 1014.6 |
| 20260502000157 | 49 | 342 | 3.5 | 6.1 | 0.00 | 0.01 | 0.01 | 74 | 1014.8 |
| 20260501235652 | 50 | 317 | 2.6 | 2.6 | 0.00 | 0.01 | 0.01 | 73 | 1014.4 |
| 20260501235148 | 50 | 286 | 1.7 | 1.7 | 0.00 | 0.01 | 0.01 | 73 | 1014.2 |
| 20260501234644 | 51 | 334 | 3.5 | 4.3 | 0.00 | 0.01 | 0.01 | 72 | 1014.2 |
| 20260501234142 | 51 | 244 | 1.7 | 1.7 | 0.00 | 0.01 | 0.01 | 71 | 1014.3 |
| 20260501233639 | 51 | 327 | 3.5 | 5.2 | 0.00 | 0.01 | 0.01 | 70 | 1014.0 |
| 20260501233137 | 52 | 274 | 0.9 | 0.9 | 0.00 | 0.01 | 0.01 | 71 | 1013.9 |
| 20260501232632 | 53 | 326 | 0.9 | 1.7 | 0.00 | 0.01 | 0.01 | 71 | 1013.8 |
| 20260501232130 | 53 | 317 | 2.6 | 4.3 | 0.00 | 0.01 | 0.01 | 72 | 1014.0 |
| 20260501231627 | 53 | 338 | 0.9 | 1.7 | 0.00 | 0.01 | 0.01 | 72 | 1013.8 |
| 20260501231126 | 53 | 33 | 5.2 | 6.1 | 0.00 | 0.01 | 0.01 | 71 | 1013.5 |
| 20260501230624 | 53 | 330 | 2.6 | 2.6 | 0.00 | 0.01 | 0.01 | 69 | 1013.8 |
| 20260501230122 | 53 | 21 | 2.6 | 2.6 | 0.00 | 0.01 | 0.01 | 67 | 1013.4 |
| 20260501225619 | 53 | 12 | 2.6 | 6.1 | 0.00 | 0.01 | 0.01 | 68 | 1013.1 |
| 20260501225115 | 54 | 254 | 4.3 | 5.2 | 0.00 | 0.01 | 0.01 | 66 | 1013.2 |
| 20260501224612 | 54 | 268 | 0.9 | 2.6 | 0.00 | 0.01 | 0.01 | 66 | 1013.1 |
| 20260501224109 | 54 | 279 | 2.6 | 4.3 | 0.00 | 0.01 | 0.01 | 66 | 1013.1 |
| 20260501223606 | 54 | 281 | 4.3 | 7.8 | 0.00 | 0.01 | 0.01 | 68 | 1013.0 |
| 20260501223103 | 55 | 7 | 0.9 | 2.6 | 0.00 | 0.01 | 0.01 | 72 | 1013.0 |
| 20260501222558 | 55 | 282 | 4.3 | 6.1 | 0.00 | 0.01 | 0.01 | 73 | 1013.0 |
| 20260501222056 | 55 | 60 | 2.6 | 5.2 | 0.00 | 0.01 | 0.01 | 75 | 1012.7 |
| 20260501221552 | 54 | 267 | 0.9 | 1.7 | 0.00 | 0.01 | 0.01 | 78 | 1012.8 |
| 20260501221050 | 54 | 289 | 6.1 | 7.0 | 0.00 | 0.01 | 0.01 | 78 | 1012.7 |
| 20260501220547 | 54 | 275 | 4.3 | 6.1 | 0.00 | 0.01 | 0.01 | 77 | 1012.9 |
| 20260501220044 | 55 | 271 | 9.6 | 12.2 | 0.00 | 0.01 | 0.01 | 77 | 1012.8 |
| 20260501215540 | 54 | 247 | 6.1 | 7.0 | 0.00 | 0.01 | 0.01 | 79 | 1012.6 |
| 20260501215036 | 54 | 248 | 6.1 | 7.8 | 0.00 | 0.01 | 0.01 | 80 | 1012.6 |
| 20260501214531 | 54 | 262 | 7.0 | 8.7 | 0.00 | 0.01 | 0.01 | 80 | 1012.6 |
| 20260501214027 | 55 | 256 | 6.1 | 7.0 | 0.00 | 0.01 | 0.01 | 79 | 1012.7 |
| 20260501213525 | 55 | 286 | 1.7 | 2.6 | 0.00 | 0.01 | 0.01 | 81 | 1012.4 |
| 20260501213020 | 54 | 281 | 2.6 | 2.6 | 0.00 | 0.01 | 0.01 | 82 | 1012.7 |
| 20260501212517 | 54 | 247 | 6.1 | 7.8 | 0.00 | 0.01 | 0.01 | 82 | 1013.0 |
| 20260501212014 | 53 | 244 | 6.1 | 7.0 | 0.00 | 0.01 | 0.01 | 83 | 1012.6 |
| 20260501211511 | 53 | 255 | 4.3 | 5.2 | 0.00 | 0.01 | 0.01 | 84 | 1012.7 |
| 20260501211009 | 53 | 244 | 0.9 | 0.9 | 0.00 | 0.01 | 0.01 | 86 | 1012.7 |
| 20260501210505 | 51 | 243 | 6.1 | 6.1 | 0.00 | 0.01 | 0.01 | 86 | 1012.7 |
| 20260501210001 | 51 | 256 | 1.7 | 1.7 | 0.00 | 0.01 | 0.01 | 87 | 1012.6 |
| 20260501205458 | 51 | 234 | 1.7 | 1.7 | 0.00 | 0.01 | 0.01 | 88 | 1012.8 |
| 20260501204956 | 51 | 244 | 5.2 | 6.1 | 0.00 | 0.01 | 0.01 | 88 | 1012.6 |
| 20260501204451 | 50 | 278 | 2.6 | 4.3 | 0.00 | 0.01 | 0.01 | 89 | 1012.7 |
| 20260501203948 | 51 | 232 | 0.9 | 0.9 | 0.00 | 0.01 | 0.01 | 91 | 1012.9 |
| 20260501203444 | 50 | 256 | 0.0 | 0.0 | 0.00 | 0.01 | 0.01 | 91 | 1013.0 |
| 20260501202942 | 50 | 244 | 1.7 | 1.7 | 0.00 | 0.01 | 0.01 | 90 | 1012.8 |
| 20260501202439 | 50 | 273 | 2.6 | 2.6 | 0.00 | 0.01 | 0.01 | 91 | 1012.9 |
| 20260501201935 | 50 | 285 | 4.3 | 6.1 | 0.00 | 0.01 | 0.01 | 91 | 1012.8 |
| 20260501201432 | 50 | 265 | 0.9 | 1.7 | 0.00 | 0.01 | 0.01 | 91 | 1012.9 |
| 20260501200929 | 51 | 271 | 4.3 | 5.2 | 0.00 | 0.01 | 0.01 | 90 | 1013.0 |
| 20260501200426 | 51 | 252 | 3.5 | 4.3 | 0.00 | 0.01 | 0.01 | 88 | 1013.0 |
| 20260501195924 | 51 | 300 | 2.6 | 2.6 | 0.00 | 0.01 | 0.01 | 87 | 1013.0 |
| 20260501195420 | 51 | 14 | 7.0 | 12.2 | 0.00 | 0.01 | 0.01 | 86 | 1013.0 |
| 20260501194915 | 52 | 268 | 4.3 | 5.2 | 0.00 | 0.01 | 0.01 | 85 | 1012.9 |
| 20260501194412 | 52 | 290 | 7.8 | 13.0 | 0.00 | 0.01 | 0.01 | 85 | 1012.9 |
| 20260501193908 | 52 | 295 | 4.3 | 5.2 | 0.00 | 0.01 | 0.01 | 85 | 1013.1 |
| 20260501193406 | 53 | 304 | 7.8 | 11.3 | 0.00 | 0.01 | 0.01 | 85 | 1012.8 |
| 20260501192904 | 54 | 355 | 2.6 | 4.3 | 0.00 | 0.01 | 0.01 | 84 | 1012.9 |
| 20260501192401 | 54 | 263 | 0.9 | 0.9 | 0.00 | 0.01 | 0.01 | 83 | 1013.0 |
| 20260501191857 | 54 | 358 | 0.9 | 0.9 | 0.00 | 0.01 | 0.01 | 84 | 1012.8 |
| 20260501191354 | 54 | 272 | 0.9 | 0.9 | 0.00 | 0.01 | 0.01 | 84 | 1012.5 |
| 20260501190846 | 53 | 255 | 0.0 | 0.9 | 0.00 | 0.01 | 0.01 | 84 | 1012.7 |
| 20260501190342 | 53 | 255 | 0.9 | 1.7 | 0.00 | 0.01 | 0.01 | 84 | 1012.8 |
| 20260501185837 | 53 | 264 | 0.9 | 0.9 | 0.00 | 0.01 | 0.01 | 84 | 1012.7 |
| 20260501185333 | 53 | 264 | 0.9 | 0.9 | 0.00 | 0.01 | 0.01 | 83 | 1012.4 |
| 20260501184829 | 53 | 270 | 2.6 | 2.6 | 0.07 | 0.01 | 0.01 | 83 | 1012.6 |
| 20260501184325 | 54 | 266 | 3.5 | 4.3 | 0.07 | 0.01 | 0.01 | 81 | 1012.5 |
| 20260501183821 | 54 | 258 | 0.9 | 0.9 | 0.00 | 0.00 | 0.00 | 79 | 1012.2 |
| 20260501183319 | 54 | 256 | 0.9 | 1.7 | 0.00 | 0.00 | 0.00 | 79 | 1012.3 |
| 20260501182815 | 55 | 258 | 2.6 | 4.3 | 0.00 | 0.00 | 0.00 | 76 | 1012.3 |
| 20260501182312 | 55 | 327 | 2.6 | 4.3 | 0.00 | 0.00 | 0.00 | 72 | 1012.3 |
| 20260501181809 | 56 | 328 | 1.7 | 1.7 | 0.00 | 0.00 | 0.00 | 69 | 1012.2 |
| 20260501181306 | 57 | 5 | 4.3 | 5.2 | 0.00 | 0.00 | 0.00 | 64 | 1012.0 |
| 20260501180803 | 58 | 255 | 1.7 | 2.6 | 0.00 | 0.00 | 0.00 | 62 | 1011.9 |
| 20260501180259 | 58 | 256 | 0.9 | 1.7 | 0.00 | 0.00 | 0.00 | 60 | 1011.8 |
| 20260501175756 | 59 | 265 | 2.6 | 5.2 | 0.00 | 0.00 | 0.00 | 60 | 1012.0 |
| 20260501175253 | 59 | 332 | 2.6 | 4.3 | 0.00 | 0.00 | 0.00 | 59 | 1011.8 |
| 20260501174749 | 60 | 244 | 3.5 | 5.2 | 0.00 | 0.00 | 0.00 | 57 | 1011.6 |
| 20260501174247 | 60 | 276 | 2.6 | 4.3 | 0.00 | 0.00 | 0.00 | 56 | 1011.7 |
| 20260501173745 | 60 | 239 | 1.7 | 1.7 | 0.00 | 0.00 | 0.00 | 56 | 1011.7 |
| 20260501173241 | 61 | 256 | 4.3 | 5.2 | 0.00 | 0.00 | 0.00 | 54 | 1011.6 |
| 20260501172737 | 60 | 254 | 0.9 | 1.7 | 0.00 | 0.00 | 0.00 | 56 | 1011.7 |
| 20260501172233 | 59 | 251 | 6.1 | 7.0 | 0.00 | 0.00 | 0.00 | 53 | 1011.8 |
| 20260501171729 | 60 | 254 | 4.3 | 6.1 | 0.00 | 0.00 | 0.00 | 53 | 1011.8 |
| 20260501171226 | 61 | 178 | 1.7 | 1.7 | 0.00 | 0.00 | 0.00 | 53 | 1012.1 |
| 20260501170723 | 60 | 212 | 2.6 | 2.6 | 0.00 | 0.00 | 0.00 | 54 | 1011.9 |
| 20260501170220 | 61 | 271 | 0.9 | 1.7 | 0.00 | 0.00 | 0.00 | 55 | 1012.0 |
| 20260501165717 | 60 | 278 | 4.3 | 4.3 | 0.00 | 0.00 | 0.00 | 56 | 1012.2 |
| 20260501165215 | 60 | 194 | 2.6 | 2.6 | 0.00 | 0.00 | 0.00 | 56 | 1012.1 |
| 20260501164712 | 59 | 212 | 1.7 | 1.7 | 0.00 | 0.00 | 0.00 | 56 | 1011.9 |
| 20260501164209 | 58 | 239 | 2.6 | 2.6 | 0.00 | 0.00 | 0.00 | 57 | 1012.2 |
| 20260501163705 | 58 | 248 | 4.3 | 5.2 | 0.00 | 0.00 | 0.00 | 59 | 1012.2 |
| 20260501163202 | 58 | 216 | 4.3 | 6.1 | 0.00 | 0.00 | 0.00 | 60 | 1012.3 |
| 20260501162658 | 59 | 222 | 1.7 | 1.7 | 0.00 | 0.00 | 0.00 | 59 | 1012.2 |
| 20260501162155 | 59 | 155 | 5.2 | 7.8 | 0.00 | 0.00 | 0.00 | 57 | 1012.2 |
| 20260501161652 | 58 | 178 | 3.5 | 5.2 | 0.00 | 0.00 | 0.00 | 59 | 1012.3 |
| 20260501161149 | 59 | 275 | 1.7 | 2.6 | 0.00 | 0.00 | 0.00 | 58 | 1012.4 |
| 20260501160645 | 58 | 228 | 2.6 | 5.2 | 0.00 | 0.00 | 0.00 | 59 | 1012.5 |
| 20260501160143 | 59 | 204 | 4.3 | 5.2 | 0.00 | 0.00 | 0.00 | 58 | 1012.3 |